When you browse on this site, cookies collect data to enhance your experience and personalize the content and advertising you see.
Visit our Privacy Policy to learn more. By continuing to use the site, you agree to this use of cookies and data.
  • In Austria
  • List of Countries
  • For 7 days
  • Water Temperature
  • Satellite Maps
  • Weather Map
  • News
  • Weather Widgets
  • user-avatar
    Login

    Hourly Weather Saga

    Today, 17 February, Sunday

    Time Temperature Precipitation Wind Pressure Humidity
    00:00 +7°C° 0 mm 1 mps 765 mmHg 63%
    01:00 +6°C° 0 mm 1 mps 765 mmHg 63%
    02:00 +6°C° 0 mm 1 mps 765 mmHg 63%
    03:00 +6°C° 0 mm 1 mps 765 mmHg 65%
    04:00 +6°C° 0 mm 1 mps 765 mmHg 65%
    05:00 +6°C° 0 mm 1 mps 765 mmHg 66%
    06:00 +6°C° 0 mm 1 mps 765 mmHg 67%
    07:00 +6°C° 0 mm 1 mps 766 mmHg 62%
    08:00 +7°C° 0 mm 1 mps 766 mmHg 58%
    09:00 +7°C° 0 mm 2 mps 766 mmHg 53%
    10:00 +8°C° 0 mm 2 mps 766 mmHg 49%
    11:00 +9°C° 0 mm 2 mps 766 mmHg 44%
    12:00 +10°C° 0 mm 2 mps 766 mmHg 40%
    13:00 +10°C° 0 mm 2 mps 766 mmHg 39%
    14:00 +10°C° 0 mm 2 mps 766 mmHg 38%
    15:00 +10°C° 0 mm 3 mps 765 mmHg 37%
    16:00 +9°C° 0 mm 3 mps 766 mmHg 39%
    17:00 +8°C° 0 mm 3 mps 766 mmHg 42%
    18:00 +7°C° 0 mm 3 mps 766 mmHg 44%
    19:00 +7°C° 0 mm 2 mps 766 mmHg 45%
    20:00 +6°C° 0 mm 2 mps 767 mmHg 46%
    21:00 +6°C° 0 mm 2 mps 767 mmHg 46%
    22:00 +5°C° 0 mm 2 mps 767 mmHg 48%
    23:00 +6°C° 0 mm 1 mps 767 mmHg 49%

    Tomorrow, 18 February, Monday

    Time Temperature Precipitation Wind Pressure Humidity
    00:00 +6°C° 0 mm 1 mps 767 mmHg 50%
    01:00 +6°C° 0 mm 1 mps 767 mmHg 52%
    02:00 +6°C° 0 mm 1 mps 767 mmHg 53%
    03:00 +4°C° 0 mm 0 mps 767 mmHg 55%
    04:00 +4°C° 0 mm 0 mps 768 mmHg 56%
    05:00 +5°C° 0 mm 1 mps 768 mmHg 57%
    06:00 +5°C° 0 mm 1 mps 768 mmHg 58%
    07:00 +6°C° 0 mm 1 mps 768 mmHg 54%
    08:00 +6°C° 0 mm 0 mps 768 mmHg 50%
    09:00 +7°C° 0 mm 0 mps 769 mmHg 46%
    10:00 +9°C° 0 mm 0 mps 768 mmHg 39%
    11:00 +11°C° 0 mm 0 mps 768 mmHg 33%
    12:00 +13°C° 0 mm 1 mps 768 mmHg 27%
    13:00 +14°C° 0 mm 1 mps 768 mmHg 26%
    14:00 +14°C° 0 mm 1 mps 768 mmHg 25%
    15:00 +15°C° 0 mm 1 mps 767 mmHg 23%
    16:00 +14°C° 0 mm 1 mps 767 mmHg 27%
    17:00 +13°C° 0 mm 1 mps 767 mmHg 31%
    18:00 +12°C° 0 mm 1 mps 768 mmHg 35%
    19:00 +12°C° 0 mm 1 mps 768 mmHg 39%
    20:00 +10°C° 0 mm 0 mps 768 mmHg 42%
    21:00 +10°C° 0 mm 0 mps 769 mmHg 46%
    22:00 +9°C° 0 mm 0 mps 769 mmHg 47%
    23:00 +9°C° 0 mm 0 mps 768 mmHg 48%

    Day after tomorrow, 19 February, Tuesday

    Time Temperature Precipitation Wind Pressure Humidity
    00:00 +9°C° 0 mm 0 mps 768 mmHg 49%
    01:00 +9°C° 0 mm 0 mps 768 mmHg 50%
    02:00 +9°C° 0 mm 0 mps 768 mmHg 51%
    03:00 +9°C° 0 mm 0 mps 767 mmHg 52%
    04:00 +10°C° 0.6 mm 1 mps 767 mmHg 60%
    05:00 +9°C° 0.6 mm 1 mps 766 mmHg 68%
    06:00 +9°C° 0.6 mm 1 mps 766 mmHg 76%
    07:00 +9°C° 1.3 mm 1 mps 766 mmHg 79%
    08:00 +9°C° 1.3 mm 1 mps 767 mmHg 83%
    09:00 +10°C° 1.3 mm 1 mps 767 mmHg 86%
    10:00 +10°C° 1.5 mm 1 mps 767 mmHg 86%
    11:00 +10°C° 1.5 mm 1 mps 766 mmHg 87%
    12:00 +11°C° 1.5 mm 1 mps 766 mmHg 88%
    13:00 +11°C° 1.7 mm 1 mps 765 mmHg 88%
    14:00 +11°C° 1.7 mm 1 mps 765 mmHg 89%
    15:00 +12°C° 1.7 mm 2 mps 764 mmHg 90%
    16:00 +12°C° 0.4 mm 1 mps 764 mmHg 90%
    17:00 +12°C° 0.4 mm 1 mps 763 mmHg 91%
    18:00 +12°C° 0.4 mm 1 mps 763 mmHg 91%
    19:00 +12°C° 0 mm 1 mps 763 mmHg 91%
    20:00 +12°C° 0 mm 1 mps 763 mmHg 91%
    21:00 +12°C° 0 mm 1 mps 763 mmHg 92%
    22:00 +12°C° 0 mm 1 mps 763 mmHg 92%
    23:00 +12°C° 0 mm 1 mps 763 mmHg 92%

    20 February, Wednesday

    Time Temperature Precipitation Wind Pressure Humidity
    00:00 +13°C° 0 mm 1 mps 763 mmHg 92%
    01:00 +13°C° 0.4 mm 1 mps 762 mmHg 93%
    02:00 +13°C° 0.4 mm 1 mps 762 mmHg 94%
    03:00 +13°C° 0.4 mm 1 mps 762 mmHg 96%
    04:00 +14°C° 0.8 mm 1 mps 762 mmHg 96%
    05:00 +14°C° 0.8 mm 1 mps 762 mmHg 97%
    06:00 +14°C° 0.8 mm 1 mps 762 mmHg 97%
    07:00 +15°C° 0.1 mm 1 mps 762 mmHg 97%
    08:00 +15°C° 0.1 mm 1 mps 762 mmHg 97%
    09:00 +15°C° 0.1 mm 1 mps 763 mmHg 96%
    10:00 +16°C° 0 mm 1 mps 763 mmHg 91%
    11:00 +17°C° 0 mm 2 mps 763 mmHg 85%
    12:00 +18°C° 0 mm 2 mps 763 mmHg 80%
    13:00 +17°C° 0.1 mm 2 mps 763 mmHg 80%
    14:00 +17°C° 0.1 mm 3 mps 762 mmHg 80%
    15:00 +16°C° 0.1 mm 3 mps 762 mmHg 81%
    16:00 +16°C° 0 mm 3 mps 763 mmHg 82%
    17:00 +15°C° 0 mm 2 mps 763 mmHg 84%
    18:00 +14°C° 0 mm 2 mps 763 mmHg 85%
    19:00 +14°C° 0 mm 2 mps 764 mmHg 85%
    20:00 +13°C° 0 mm 2 mps 765 mmHg 84%
    21:00 +13°C° 0 mm 2 mps 765 mmHg 83%
    22:00 +12°C° 0 mm 2 mps 765 mmHg 81%
    23:00 +12°C° 0 mm 2 mps 765 mmHg 79%

    21 February, Thursday

    Time Temperature Precipitation Wind Pressure Humidity
    00:00 +10°C° 0 mm 2 mps 766 mmHg 78%
    01:00 +10°C° 0 mm 2 mps 766 mmHg 76%
    02:00 +10°C° 0 mm 2 mps 766 mmHg 75%
    03:00 +9°C° 0 mm 2 mps 766 mmHg 74%
    04:00 +9°C° 0 mm 2 mps 765 mmHg 75%
    05:00 +9°C° 0 mm 2 mps 765 mmHg 77%
    06:00 +9°C° 0 mm 2 mps 765 mmHg 78%
    07:00 +9°C° 0 mm 2 mps 766 mmHg 74%
    08:00 +9°C° 0 mm 3 mps 766 mmHg 70%
    09:00 +10°C° 0 mm 3 mps 767 mmHg 66%
    10:00 +11°C° 0 mm 3 mps 766 mmHg 61%
    11:00 +13°C° 0 mm 2 mps 766 mmHg 56%
    12:00 +14°C° 0 mm 2 mps 766 mmHg 50%
    13:00 +15°C° 0 mm 2 mps 766 mmHg 48%
    14:00 +15°C° 0 mm 2 mps 765 mmHg 46%
    15:00 +16°C° 0 mm 2 mps 765 mmHg 44%
    16:00 +14°C° 0 mm 3 mps 765 mmHg 47%
    17:00 +13°C° 0 mm 3 mps 765 mmHg 51%
    18:00 +12°C° 0 mm 3 mps 766 mmHg 54%
    19:00 +11°C° 0 mm 3 mps 766 mmHg 57%
    20:00 +11°C° 0 mm 3 mps 766 mmHg 59%
    21:00 +10°C° 0 mm 3 mps 766 mmHg 62%
    22:00 +10°C° 0 mm 2 mps 766 mmHg 63%
    23:00 +10°C° 0 mm 2 mps 766 mmHg 64%

    22 February, Friday

    Time Temperature Precipitation Wind Pressure Humidity
    00:00 +9°C° 0 mm 2 mps 765 mmHg 64%
    01:00 +9°C° 0 mm 2 mps 765 mmHg 65%
    02:00 +10°C° 0 mm 1 mps 765 mmHg 66%
    03:00 +10°C° 0 mm 1 mps 765 mmHg 67%
    04:00 +10°C° 0 mm 1 mps 764 mmHg 67%
    05:00 +10°C° 0 mm 1 mps 764 mmHg 67%
    06:00 +10°C° 0 mm 1 mps 764 mmHg 67%
    07:00 +9°C° 0 mm 2 mps 764 mmHg 66%
    08:00 +10°C° 0 mm 2 mps 764 mmHg 65%
    09:00 +10°C° 0 mm 2 mps 764 mmHg 63%
    10:00 +12°C° 0.1 mm 2 mps 764 mmHg 62%
    11:00 +13°C° 0.1 mm 2 mps 763 mmHg 60%
    12:00 +14°C° 0.1 mm 2 mps 763 mmHg 58%
    13:00 +13°C° 0.8 mm 2 mps 762 mmHg 64%
    14:00 +13°C° 0.8 mm 2 mps 761 mmHg 70%
    15:00 +11°C° 0.8 mm 3 mps 760 mmHg 76%
    16:00 +11°C° 2.7 mm 3 mps 759 mmHg 80%
    17:00 +10°C° 2.7 mm 3 mps 759 mmHg 84%
    18:00 +10°C° 2.7 mm 3 mps 759 mmHg 88%
    19:00 +10°C° 2.5 mm 2 mps 759 mmHg 89%
    20:00 +10°C° 2.5 mm 2 mps 759 mmHg 89%
    21:00 +10°C° 2.5 mm 2 mps 759 mmHg 90%
    22:00 +10°C° 2.1 mm 2 mps 759 mmHg 90%
    23:00 +10°C° 2.1 mm 2 mps 758 mmHg 89%
    Show more